Погода в Левашово

Россия / Ярославская область     57°38′40″N   40°31′42″E
темп.,
°C
ветер,
м/с
пор.,
м/с
влажн.,
%
обл.,
%
осадки,
мм/ч
давл.,
гПа
погр.,
м
16 апреля, пт
пт1600:00+6всв6147882 0.0 1024592
03:00+5всв61385100 0.0 1025542
06:00+4всв61379100 0.0 1025506
09:00+7всв7116444 0.0 1026609
12:00+11всв795531 0.0 1026942
15:00+13всв785012 0.0 10261115
18:00+11всв695519 0.0 1026929
21:00+7всв512647 0.0 1028472
17 апреля, сб
сб1700:00+5всв512727 0.0 1028428
03:00+4всв512765 0.0 1029357
06:00+3всв512755 0.0 1029376
09:00+8в69514 0.0 1029619
12:00+12в68364 0.0 10281033
15:00+13всв67335 0.0 10281273
18:00+11всв59431 0.0 1027624
21:00+7всв411640 0.0 1028274
18 апреля, вс
вс1800:00+5всв412711 0.0 1028278
03:00+3всв411781 0.0 1028234
06:00+3всв411813 0.0 1028286
09:00+8в59601 0.0 1028765
12:00+12всв79425 0.0 10271587
15:00+13всв784153 0.0 10272012
18:00+11всв695262 0.0 10271204
21:00+7всв61274100 0.0 1029611
19 апреля, пн
пн1900:00+5всв51078100 0.0 1029571
03:00+4всв5974100 0.0 1030504
06:00+3всв51065100 0.0 1030505
09:00+5в685789 0.0 1031719
12:00+9в78458 0.0 10301301
15:00+11вюв68418 0.0 10301620
18:00+9вюв69445 0.0 10301413
21:00+5в4125411 0.0 1030377
20 апреля, вт
вт2000:00+4в513555 0.0 1030441
03:00+2в5136147 0.0 1029414
06:00+1в613645 0.0 1028493
09:00+5вюв71257100 0.0 1026803
12:00+9вюв9125064 0.0 10241210
15:00+11вюв91450100 0.0 10211410
18:00+9вюв101753100 0.0 10191222
21:00+8вюв101856100 0.3 10171128